Simultaneous Nadir Overpasses (SNOs) Predictions

Prediction of SNOs between GOES-16 and NOAA-20 Satellite Orbit:

Table of predicted SNOs for the next 14.0 days since TLE Epoch: 4/10/2020
Index Date Time (GOES-16) GOES-16 Lat,Lon NOAA-20 Lat,Lon Distance(km) Time Diff (sec)
1 04/12/2020 06:39:09 -0.01, -75.19 0.62, -78.02 322.53 80
2 04/13/2020 06:17:44 -0.01, -75.19 -0.41, -73.50 192.99 80
3 04/14/2020 18:39:40 0.01, -75.19 -0.77, -78.81 411.36 80
4 04/15/2020 18:23:35 0.01, -75.19 0.20, -74.27 104.87 80
5 04/17/2020 06:45:23 -0.01, -75.18 0.94, -79.55 496.60 80
6 04/18/2020 06:23:58 -0.01, -75.18 -0.03, -75.01 20.00 80
7 04/20/2020 18:27:10 0.00, -75.21 -0.12, -75.79 66.01 80
8 04/21/2020 18:11:05 0.01, -75.22 0.91, -71.26 451.23 80
9 04/23/2020 06:32:53 -0.01, -75.22 0.28, -76.53 148.76 80
10 04/24/2020 06:11:28 -0.01, -75.23 -0.75, -72.00 368.47 80




NCC Satellite Simultaneous Nadir Overpasses (SNOs) Prediction Service
